This is the latest recevied weather packets stored in our database for station/object N1HQ. If no packets are shown the sender has not sent any weather packets the latest 1 day(s).
| Time | Temp. | Humidity | Pressure | Rain* | Wind** | Luminosity | Snow |
|---|---|---|---|---|---|---|---|
| 1777986652 | 18.89° C | 88% | 1013.9 hPa | 0 mm | 1.34 m/s, 117° | - | - |
| 1777986408 | 18.89° C | 87% | 1013.8 hPa | 0 mm | 1.34 m/s, 107° | - | - |
| 1777986163 | 18.89° C | 88% | 1013.8 hPa | 0 mm | 0.89 m/s, 109° | - | - |
| 1777985650 | 18.33° C | 89% | 1013.7 hPa | 0 mm | 0.89 m/s, 92° | - | - |
| 1777985368 | 18.33° C | 89% | 1013.7 hPa | 0 mm | 0.45 m/s, 93° | - | - |
| 1777985075 | 18.33° C | 90% | 1013.9 hPa | 0 mm | 0.45 m/s, 88° | - | - |
| 1777984803 | 17.78° C | 89% | 1013.9 hPa | 0 mm | 0.45 m/s, 68° | - | - |
| 1777984508 | 17.78° C | 90% | 1013.9 hPa | 0 mm | 0.45 m/s, 115° | - | - |
| 1777984218 | 17.22° C | 90% | 1013.7 hPa | 0 mm | 0.45 m/s, 121° | - | - |
| 1777983954 | 17.22° C | 90% | 1013.7 hPa | 0 mm | 0.45 m/s, 100° | - | - |
| 1777983678 | 16.67° C | 91% | 1013.6 hPa | 0 mm | 0.45 m/s, 107° | - | - |
| 1777983378 | 16.67° C | 91% | 1013.7 hPa | 0 mm | 0.45 m/s, 58° | - | - |
| 1777983083 | 16.67° C | 91% | 1013.8 hPa | 0 mm | 0 m/s | - | - |
| 1777982791 | 16.67° C | 92% | 1013.8 hPa | 0 mm | 0 m/s | - | - |
| 1777982539 | 16.11° C | 92% | 1013.7 hPa | 0 mm | 0 m/s | - | - |
| 1777982253 | 16.11° C | 93% | 1013.6 hPa | 0 mm | 0.45 m/s, 111° | - | - |
| 1777981963 | 16.11° C | 92% | 1013.6 hPa | 0 mm | 0.45 m/s, 105° | - | - |
| 1777981693 | 15.56° C | 93% | 1013.6 hPa | 0 mm | 0 m/s | - | - |
| 1777981415 | 15.56° C | 93% | 1013.5 hPa | 0 mm | 0 m/s | - | - |
| 1777981129 | 15.56° C | 93% | 1013.5 hPa | 0 mm | 0.45 m/s, 107° | - | - |
| 1777980863 | 15.56° C | 93% | 1013.5 hPa | 0 mm | 0.45 m/s, 49° | - | - |
| 1777980571 | 15° C | 94% | 1013.4 hPa | 0 mm | 0.45 m/s, 109° | - | - |
| 1777980318 | 15° C | 94% | 1013.3 hPa | 0 mm | 0.45 m/s, 75° | - | - |
| 1777980068 | 15° C | 94% | 1013.3 hPa | 0 mm | 0 m/s | - | - |
| 1777979803 | 15° C | 94% | 1013.2 hPa | 0 mm | 0 m/s | - | - |
* Rain latest hour (hover to see other rain measurements)
** Current wind speed in m/s (hover to see current wind gust speed)